Lake Charles Regional, LA

3:18 AM CST on November 20, 2017 (GMT -0600)
Lake Charles Regional

Weather History for KLCH - December, 2013

Change the Weather History Date:

Sunday, December 8, 2013

  Actual Average Record
Temperature  
Mean Temperature 40 °F 55 °F  
Max Temperature 45 °F 65 °F 82 °F (1966)
Min Temperature 35 °F 45 °F 25 °F (1910)
Degree Days  
Heating Degree Days 25 11  
Month to date heating degree days 81 79  
Since 1 July heating degree days 355 286  
Cooling Degree Days 0 1  
Month to date cooling degree days 19 8  
Year to date cooling degree days 2966 2797  
Moisture  
Dew Point 38 °F    
Average Humidity 95    
Maximum Humidity 100    
Minimum Humidity 89    
Precipitation  
Precipitation 0.83 in 0.15 in 3.75 in (1935)
Month to date precipitation 0.86 1.18  
Year to date precipitation 56.27 53.99  
Snow  
Snow 0.00 in 0.00 in 0.00 in ()
Month to date snowfall 0.0 0.0  
Since 1 July snowfall 0.0 0.0  
Snow Depth 0.00 in    
Sea Level Pressure  
Sea Level Pressure 30.16 in    
Wind  
Wind Speed 6 mph (NNE)    
Max Wind Speed 12 mph    
Max Gust Speed 14 mph    
Visibility 6 miles    
Events Rain , Thunderstorm    
T = Trace of Precipitation, MM = Missing Value Source: NWS Daily Summary

Daily Weather History Graph

Daily Weather History Graph

Search for Another Location

Airport or City:

Trip Planner

Search our weather history database for the weather conditions in past years. The results will help you decide how hot, cold, wet, or windy it might be!

Date:

Astronomy

Dec. 08, 2013 Rise Set
Actual Time 6:56 AM CST 5:12 PM CST
Civil Twilight 6:30 AM CST 5:39 PM CST
Nautical Twilight 6:00 AM CST 6:08 PM CST
Astronomical Twilight 5:31 AM CST 6:38 PM CST
Moon 11:37 AM CST (12/8) 11:40 PM CST (12/8)
Length of Visible Light 11h 08m
Length of Day
10h 15m
Waxing Crescent, 40% of the Moon is Illuminated
Dec 8
Waxing Crescent
Dec 9
First Quarter
Dec 17
Full
Dec 25
Last Quarter
Jan 1
New

Hourly Weather History & Observations

Time (CST) Temp. Windchill Dew Point Humidity Pressure Visibility Wind Dir Wind Speed Gust Speed Precip Events Conditions
12:53 AM 35.1 °F 30.1 °F 32.0 °F 89% 30.29 in 10.0 mi North 5.8 mph - N/A   Overcast
1:53 AM 36.0 °F 29.0 °F 32.0 °F 86% 30.26 in 10.0 mi NNE 9.2 mph - N/A   Overcast
2:53 AM 35.1 °F 29.3 °F 33.1 °F 92% 30.22 in 10.0 mi ENE 6.9 mph - N/A   Overcast
3:53 AM 36.0 °F 29.0 °F 32.0 °F 86% 30.20 in 10.0 mi NE 9.2 mph - N/A   Overcast
4:15 AM 35.6 °F 28.6 °F 32.0 °F 87% 30.20 in 10.0 mi North 9.2 mph - N/A   Overcast
4:53 AM 36.0 °F 30.3 °F 33.1 °F 89% 30.22 in 10.0 mi North 6.9 mph - N/A   Overcast
5:21 AM 35.6 °F 29.9 °F 33.8 °F 93% 30.18 in 9.0 mi NE 6.9 mph - 0.00 in   Overcast
5:53 AM 35.1 °F 32.2 °F 34.0 °F 96% 30.22 in 3.0 mi ESE 3.5 mph - 0.01 in Rain Rain
5:58 AM 35.6 °F - 33.8 °F 93% 30.19 in 1.8 mi Calm Calm - 0.09 in Rain Heavy Rain
6:15 AM 35.6 °F 31.7 °F 33.8 °F 93% 30.18 in 2.5 mi NE 4.6 mph - 0.35 in Rain Heavy Rain
6:24 AM 35.6 °F 30.7 °F 33.8 °F 93% 30.17 in 5.0 mi ENE 5.8 mph - 0.37 in Rain Light Rain
6:35 AM 35.6 °F 29.9 °F 33.8 °F 93% 30.17 in 7.0 mi NE 6.9 mph - 0.37 in Rain Light Rain
6:53 AM 36.0 °F 32.1 °F 34.0 °F 93% 30.21 in 8.0 mi NNE 4.6 mph - 0.38 in   Overcast
7:37 AM 35.6 °F 29.2 °F 35.6 °F 100% 30.17 in 7.0 mi NE 8.1 mph - 0.00 in Rain Light Rain
7:53 AM 37.0 °F 30.4 °F 35.1 °F 93% 30.20 in 9.0 mi NNE 9.2 mph - 0.00 in   Overcast
8:09 AM 37.4 °F 30.8 °F 35.6 °F 93% 30.16 in 4.0 mi NE 9.2 mph - 0.01 in Rain Light Rain
8:53 AM 37.0 °F 32.4 °F 36.0 °F 96% 30.19 in 9.0 mi NE 5.8 mph - 0.01 in   Overcast
9:21 AM 37.4 °F 32.8 °F 35.6 °F 93% 30.17 in 5.0 mi ENE 5.8 mph - 0.02 in Rain , Thunderstorm Rain
9:36 AM 37.4 °F 33.8 °F 37.4 °F 100% 30.18 in 5.0 mi ENE 4.6 mph - 0.02 in Rain Light Rain
9:53 AM 37.9 °F 35.5 °F 36.0 °F 93% 30.21 in 4.0 mi North 3.5 mph - 0.03 in Rain Light Rain
10:53 AM 39.0 °F 34.8 °F 37.9 °F 96% 30.19 in 4.0 mi NNE 5.8 mph - 0.02 in Rain Light Rain
11:15 AM 39.2 °F 34.2 °F 37.4 °F 93% 30.17 in 1.8 mi North 6.9 mph - 0.04 in Rain Rain
11:19 AM 39.2 °F 33.6 °F 37.4 °F 93% 30.16 in 3.0 mi North 8.1 mph - 0.05 in Rain Light Rain
11:53 AM 39.0 °F 32.8 °F 37.9 °F 96% 30.17 in 2.0 mi NNE 9.2 mph - 0.12 in Rain Heavy Rain
12:10 PM 39.2 °F 34.2 °F 37.4 °F 93% 30.14 in 4.0 mi North 6.9 mph - 0.08 in Rain , Thunderstorm Light Rain
12:40 PM 39.2 °F 33.6 °F 37.4 °F 93% 30.11 in 2.5 mi North 8.1 mph - 0.12 in Rain Rain
12:49 PM 39.2 °F 34.2 °F 37.4 °F 93% 30.11 in 4.0 mi NNE 6.9 mph - 0.13 in Rain Light Rain
12:53 PM 39.9 °F 36.7 °F 39.0 °F 97% 30.13 in 4.0 mi North 4.6 mph - 0.13 in Rain Light Rain
1:02 PM 39.2 °F 33.6 °F 39.2 °F 100% 30.09 in 1.8 mi NNE 8.1 mph - 0.02 in Rain Heavy Rain
1:10 PM 39.2 °F 34.2 °F 39.2 °F 100% 30.10 in 3.0 mi NNW 6.9 mph - 0.07 in Rain Light Rain
1:29 PM 41.0 °F 35.8 °F 39.2 °F 93% 30.09 in 2.5 mi North 8.1 mph - 0.10 in Rain Rain
1:37 PM 39.2 °F 33.6 °F 39.2 °F 100% 30.09 in 5.0 mi North 8.1 mph - 0.10 in Rain Light Rain
1:53 PM 41.0 °F 35.2 °F 39.0 °F 93% 30.10 in 3.0 mi North 9.2 mph - 0.12 in Rain Rain
2:53 PM 42.1 °F 37.7 °F 39.9 °F 92% 30.09 in 9.0 mi NNE 6.9 mph - 0.01 in   Overcast
3:53 PM 43.0 °F 37.7 °F 41.0 °F 93% 30.09 in 9.0 mi NNE 9.2 mph - N/A   Overcast
4:53 PM 43.0 °F 39.5 °F 42.1 °F 97% 30.09 in 6.0 mi North 5.8 mph - N/A   Overcast
5:53 PM 43.0 °F 38.8 °F 42.1 °F 97% 30.10 in 6.0 mi NNE 6.9 mph - N/A   Overcast
6:53 PM 44.1 °F - 43.0 °F 96% 30.13 in 7.0 mi Calm Calm - N/A   Overcast
7:53 PM 45.0 °F 41.8 °F 43.0 °F 93% 30.13 in 7.0 mi North 5.8 mph - N/A   Overcast
8:53 PM 45.0 °F 42.6 °F 43.0 °F 93% 30.14 in 8.0 mi NNE 4.6 mph - N/A   Overcast
9:53 PM 45.0 °F 41.2 °F 43.0 °F 93% 30.14 in 8.0 mi North 6.9 mph - N/A   Overcast
10:00 PM 44.6 °F 42.2 °F 42.8 °F 93% 30.12 in 9.0 mi NNE 4.6 mph - N/A   Overcast
10:16 PM 44.6 °F 42.2 °F 42.8 °F 93% 30.13 in 9.0 mi ENE 4.6 mph - N/A   Overcast
10:53 PM 45.0 °F 41.8 °F 43.0 °F 93% 30.15 in 8.0 mi NE 5.8 mph - N/A   Overcast
11:07 PM 44.6 °F 40.7 °F 42.8 °F 93% 30.13 in 9.0 mi NE 6.9 mph - N/A   Overcast
11:53 PM 45.0 °F 41.8 °F 43.0 °F 93% 30.14 in 10.0 mi NNE 5.8 mph - N/A   Overcast